[[{"header":{"parameterUnit":"m.s-1","parameterCategory":1,"la1":30.2991,"la2":30.254,"lo1":-89.0895,"lo2":-89.0444,"dy":0.0017,"dx":0.0017,"nx":28,"ny":28,"refTime":"2023-09-17T21:00:00:Z","depth":0,"parameterNumber":2,"parameterNumberName":"U-component_of_WINDS"},"data":[0,0,0,0,0,0,0,0,0,0,0,0,0,0,0,0,0,0,0,0,0,0,0,0,0,0,0,0,0,0,0,0,0,0,0,0,0,0,0,0,0,0,0,0,0,0,0,0,0,0,0,0,0,0,0,0,0,0,-4.19,-4.1901,0,-4.1994,-4.1995,-4.1996,-4.1894,-4.189,-4.1886,-4.1882,-4.1976,-4.1982,-4.1988,0,0,0,0,0,0,0,0,0,0,0,0,0,-4.1632,-4.1638,-4.19,-4.1901,-4.1902,-4.1993,-4.1995,-4.1996,-4.1894,-4.189,-4.1885,-4.1881,-4.1974,-4.1981,-4.1989,0,0,0,0,0,0,0,0,0,0,0,0,0,-4.1739,-4.1639,-4.19,-4.1863,-4.186,-4.1993,-4.1995,-4.1996,-4.1895,-4.189,-4.1884,-4.1878,-4.1972,-4.1981,-4.199,-4.2163,0,0,-4.2018,-4.2022,0,0,0,0,0,0,0,0,-4.1733,-4.1749,-4.1867,-4.1865,-4.1863,-4.1926,-4.1935,-4.2052,-4.1897,-4.1882,-4.1882,-4.1875,-4.1964,-4.1974,-4.2004,-4.2167,-4.2171,-4.2019,-4.2024,-4.2028,-4.2031,0,0,0,0,0,0,0,-4.1726,-4.1745,-4.1937,-4.1869,-4.1866,-4.1841,-4.185,-4.1956,-4.1955,-4.1883,-4.1876,-4.1888,-4.1962,-4.1995,-4.2005,-4.2173,-4.2018,-4.2027,-4.2032,-4.2036,-4.2483,-4.2489,0,0,0,0,0,0,-4.1723,-4.1739,-4.1934,-4.194,-4.1783,-4.1851,-4.186,-4.1912,-4.1953,-4.1954,-4.1893,-4.1883,-4.1982,-4.1995,-4.2008,-4.2212,-4.2028,-4.2037,-4.2042,-4.2477,-4.2485,-4.2492,0,0,0,0,0,0,-4.1718,-4.1741,-4.193,-4.1838,-4.186,-4.1861,-4.192,-4.1917,-4.195,-4.1961,-4.196,-4.1928,-4.1978,-4.1995,-4.2125,-4.2214,-4.2041,-4.2049,-4.247,-4.2479,-4.2488,-4.2623,0,0,0,0,0,0,-4.171,-4.174,-4.1806,-4.184,-4.1865,-4.2046,-4.1925,-4.1923,-4.1966,-4.1954,-4.1993,-4.1994,-4.1975,-4.2112,-4.2135,-4.2224,-4.2056,-4.2461,-4.2474,-4.2485,-4.2611,-4.2636,-4.2658,0,0,0,0,0,-4.1701,-4.1839,-4.181,-4.1834,-4.1947,-4.2051,-4.2066,-4.2042,-4.1974,-4.2039,-4.2047,-4.1992,-4.2202,-4.2126,-4.2151,-4.2244,-4.2456,-4.247,-4.2484,-4.26,-4.2631,-4.2657,0,0,0,0,0,0,-4.1814,-4.1843,-4.181,-4.1964,-4.2006,-4.2034,-4.2116,-4.2076,-4.2137,-4.2123,-4.2091,-4.21,-4.2238,-4.2255,-4.217,-4.2414,-4.2318,-4.2338,-4.2397,-4.2427,-4.245,-4.2441,-4.2064,0,0,0,0,0,-4.1857,-4.194,-4.1961,-4.2094,-4.2117,-4.2114,-4.2158,-4.2137,-4.2179,-4.2195,-4.2212,-4.2255,-4.233,-4.238,-4.245,-4.2614,-4.262,-4.2691,-4.2714,-4.2734,-4.275,-4.2837,-4.2868,-4.2539,-4.2539,-4.2538,0,0,-4.1946,-4.1972,-4.2026,-4.2118,-4.2148,-4.2233,-4.2129,-4.2224,-4.2287,-4.221,-4.2332,-4.2348,-4.2393,-4.2541,-4.2607,-4.2559,-4.2843,-4.2752,-4.2767,-4.2773,-4.2855,-4.2886,-4.2914,-4.2549,-4.2547,-4.2545,0,0,-4.2151,-4.2181,-4.2294,-4.2327,-4.2375,-4.2372,-4.24,-4.2436,-4.2442,-4.2566,-4.251,-4.2585,-4.2716,-4.275,-4.2785,-4.3008,-4.2959,-4.3032,-4.3153,-4.3239,-4.3264,-4.3287,-4.3364,-4.3392,-4.3049,-4.3049,-4.305,0,-4.2254,-4.2381,-4.2357,-4.2457,-4.2498,-4.2435,-4.255,-4.2583,-4.2652,-4.2681,-4.2628,-4.2791,-4.2817,-4.2971,-4.3026,-4.3058,-4.3087,-4.3024,-4.3263,-4.3286,-4.3306,-4.3379,-4.3408,-4.3058,-4.3057,-4.3056,-4.3055,0,-4.2506,-4.2595,-4.2682,-4.275,-4.2802,-4.2909,-4.29,-4.2956,-4.2932,-4.2935,-4.3062,-4.3093,-4.3167,-4.3204,-4.318,-4.3356,-4.3324,-4.3268,-4.3169,-4.3346,-4.3414,-4.3442,-4.3069,-4.3066,-4.3064,-4.3062,0,0,-4.2778,-4.2835,-4.2867,-4.2897,-4.2948,-4.3016,-4.3121,-4.3195,-4.3243,-4.3294,-4.3379,-4.3493,-4.3442,-4.3482,-4.3462,-4.3538,-4.371,-4.3472,-4.3472,-4.3512,-4.3903,-4.3942,-4.3974,-4.3681,-4.3686,-4.369,-4.3898,0,-4.2981,-4.3162,-4.3146,-4.3317,-4.3399,-4.3343,-4.3434,-4.3475,-4.3482,-4.3552,-4.356,-4.364,-4.3568,-4.3591,-4.3664,-4.3674,-4.3787,-4.3659,-4.3758,-4.3761,-4.3743,-4.401,-4.4051,-4.4245,-4.3924,-4.3929,-4.3932,0,-4.3241,-4.3302,-4.3482,-4.3521,-4.3555,-4.3637,-4.3704,-4.3773,-4.3819,-4.3819,-4.3865,-4.3834,-4.3939,-4.3843,-4.3987,-4.39,-4.394,-4.3952,-4.3959,-4.3963,-4.3854,-4.4018,-4.4307,-4.4334,-4.3974,-4.3971,-4.3968,0,-4.3417,-4.3546,-4.3669,-4.3698,-4.3747,-4.3806,-4.383,-4.387,-4.3916,-4.3976,-4.4005,-4.4077,-4.4115,-4.4171,-4.416,-4.4091,-4.4306,-4.4209,-4.4307,-4.4307,-4.435,-4.4347,-4.4645,-4.4384,-4.4384,-4.4383,-4.4383,0,-4.3643,-4.3754,-4.3749,-4.3825,-4.3949,-4.393,-4.4053,-4.4069,-4.4106,-4.4184,-4.4142,-4.4215,-4.4198,-4.4272,-4.4265,-4.4384,-4.4402,-4.4404,-4.4399,-4.4405,-4.4404,-4.4427,-4.4411,-4.4391,-4.4389,-4.4388,-4.4387,0,-4.3858,-4.386,-4.399,-4.4028,-4.4041,-4.413,-4.4162,-4.4233,-4.4239,-4.4338,-4.436,-4.4369,-4.4454,-4.445,-4.4546,-4.4541,-4.4686,-4.4669,-4.4671,-4.4665,-4.4762,-4.4751,-4.5082,-4.5123,-4.484,-4.4842,-4.4845,0,-4.3999,-4.4083,-4.4132,-4.4181,-4.4209,-4.429,-4.4337,-4.4324,-4.4375,-4.4436,-4.45,-4.4581,-4.4645,-4.4783,-4.4797,-4.487,-4.4851,-4.4963,-4.4862,-4.4865,-4.4849,-4.4842,-4.4849,-4.498,-4.4984,-4.4986,-4.4988,0,-4.4248,-4.4246,-4.4316,-4.4389,-4.4448,-4.4504,-4.4555,-4.4598,-4.459,-4.4651,-4.4737,-4.4787,-4.4886,-4.4967,-4.5038,-4.5061,-4.5023,-4.5021,-4.5047,-4.505,-4.5046,-4.5046,-4.472,-4.5012,-4.501,-4.5008,-4.5007,-4.5006,-4.4427,-4.45,-4.4545,-4.4626,-4.4665,-4.4714,-4.4783,-4.4799,-4.4872,-4.4951,-4.494,-4.5037,-4.5083,-4.5174,-4.5205,-4.528,-4.524,-4.5279,-4.5287,-4.5296,-4.5305,-4.504,-4.5294,-4.5293,-4.5293,-4.5292,-4.5292,0,-4.467,-4.4698,-4.4774,-4.4848,-4.4912,-4.4875,-4.4931,-4.4986,-4.5072,-4.5119,-4.5183,-4.5283,-4.5363,-4.5385,-4.5461,-4.5517,-4.5502,-4.5537,-4.553,-4.5536,-4.5338,-4.5306,-4.5549,-4.5549,-4.5548,-4.5548,-4.5548,-4.5548,-4.4804,-4.4924,-4.4928,-4.5068,-4.5095,-4.519,-4.5225,-4.5271,-4.5308,-4.5422,-4.5488,-4.5503,-4.5541,-4.562,-4.5691,-4.5696,-4.5724,-4.5766,-4.5763,-4.5576,-4.555,-4.5525,-4.5495,-4.5773,-4.5773,-4.5954,-4.5956,-4.5957]},{"header":{"parameterUnit":"m.s-1","parameterCategory":1,"la1":30.2991,"la2":30.254,"lo1":-89.0895,"lo2":-89.0444,"dy":0.0017,"dx":0.0017,"nx":28,"ny":28,"refTime":"2023-09-17T21:00:00:Z","depth":0,"parameterNumber":3,"parameterNumberName":"V-component_of_WINDS"},"data":[0,0,0,0,0,0,0,0,0,0,0,0,0,0,0,0,0,0,0,0,0,0,0,0,0,0,0,0,0,0,0,0,0,0,0,0,0,0,0,0,0,0,0,0,0,0,0,0,0,0,0,0,0,0,0,0,0,0,-0.2469,-0.247,0,-0.2523,-0.2524,-0.2525,-0.2602,-0.2603,-0.2604,-0.2605,-0.2661,-0.2662,-0.2662,0,0,0,0,0,0,0,0,0,0,0,0,0,-0.243,-0.243,-0.2469,-0.247,-0.247,-0.2523,-0.2524,-0.2525,-0.2601,-0.2603,-0.2604,-0.2606,-0.2661,-0.2661,-0.2662,0,0,0,0,0,0,0,0,0,0,0,0,0,-0.2462,-0.243,-0.2469,-0.2515,-0.2519,-0.2523,-0.2524,-0.2525,-0.2601,-0.2603,-0.2605,-0.2607,-0.2661,-0.2661,-0.2662,-0.2625,0,0,-0.2663,-0.2663,0,0,0,0,0,0,0,0,-0.246,-0.2463,-0.2507,-0.2512,-0.2517,-0.2558,-0.2531,-0.2559,-0.26,-0.257,-0.2605,-0.2608,-0.2625,-0.2629,-0.2635,-0.2628,-0.263,-0.2663,-0.2663,-0.2664,-0.2664,0,0,0,0,0,0,0,-0.2457,-0.2461,-0.2491,-0.2508,-0.2514,-0.2532,-0.2539,-0.2536,-0.2586,-0.2573,-0.2579,-0.2584,-0.2628,-0.2634,-0.2636,-0.2631,-0.2663,-0.2663,-0.2664,-0.2664,-0.2594,-0.2592,0,0,0,0,0,0,-0.2448,-0.2459,-0.2489,-0.2492,-0.2493,-0.2531,-0.2539,-0.2543,-0.2586,-0.2595,-0.2582,-0.2587,-0.2632,-0.2636,-0.2639,-0.2598,-0.2663,-0.2664,-0.2664,-0.2596,-0.2594,-0.2592,0,0,0,0,0,0,-0.2447,-0.245,-0.2487,-0.2477,-0.2483,-0.253,-0.2533,-0.2543,-0.2549,-0.2593,-0.2602,-0.2579,-0.2634,-0.2638,-0.2627,-0.2601,-0.2664,-0.2664,-0.2599,-0.2596,-0.2593,-0.2515,0,0,0,0,0,0,-0.2446,-0.245,-0.2436,-0.2476,-0.2483,-0.2475,-0.2532,-0.2542,-0.2549,-0.2556,-0.2593,-0.2601,-0.2636,-0.2626,-0.2628,-0.2602,-0.2665,-0.2602,-0.2597,-0.2594,-0.252,-0.251,-0.2501,0,0,0,0,0,-0.2444,-0.2413,-0.2435,-0.2439,-0.2468,-0.2473,-0.2477,-0.2518,-0.2547,-0.2534,-0.2562,-0.26,-0.2603,-0.2625,-0.2627,-0.2601,-0.2603,-0.2599,-0.2594,-0.2525,-0.2512,-0.2501,0,0,0,0,0,0,-0.2369,-0.2419,-0.2445,-0.2425,-0.2444,-0.2486,-0.2471,-0.2503,-0.2515,-0.2521,-0.2572,-0.2579,-0.2562,-0.258,-0.2604,-0.2567,-0.2609,-0.2604,-0.2555,-0.2543,-0.2534,-0.253,-0.2665,0,0,0,0,0,-0.235,-0.2351,-0.2394,-0.2372,-0.2381,-0.2424,-0.2427,-0.2457,-0.2479,-0.2488,-0.2515,-0.2535,-0.254,-0.2543,-0.255,-0.2523,-0.2532,-0.2506,-0.2496,-0.2488,-0.2484,-0.2469,-0.2458,-0.2576,-0.2576,-0.2576,0,0,-0.2312,-0.2339,-0.2336,-0.2358,-0.2376,-0.2375,-0.243,-0.2427,-0.2426,-0.2487,-0.2479,-0.2499,-0.2524,-0.2504,-0.2497,-0.2519,-0.2453,-0.2482,-0.2475,-0.2475,-0.2463,-0.2452,-0.2442,-0.2573,-0.2574,-0.2574,0,0,-0.2241,-0.2261,-0.2245,-0.2262,-0.2288,-0.2317,-0.2313,-0.2349,-0.2365,-0.2357,-0.2402,-0.2402,-0.2411,-0.2426,-0.2435,-0.2367,-0.2401,-0.2368,-0.2317,-0.2302,-0.2293,-0.2285,-0.226,-0.225,-0.2363,-0.2363,-0.2363,0,-0.2189,-0.2189,-0.2233,-0.2226,-0.2234,-0.2288,-0.2272,-0.2286,-0.2313,-0.2317,-0.2342,-0.2352,-0.2373,-0.2357,-0.234,-0.2346,-0.2342,-0.2364,-0.229,-0.2283,-0.2276,-0.2253,-0.2243,-0.2359,-0.2359,-0.236,-0.236,0,-0.2124,-0.2123,-0.2107,-0.2131,-0.2137,-0.2126,-0.2167,-0.2167,-0.2196,-0.2221,-0.2211,-0.2238,-0.2251,-0.2249,-0.2278,-0.2237,-0.225,-0.2281,-0.2325,-0.226,-0.2239,-0.223,-0.2352,-0.2354,-0.2355,-0.2356,0,0,-0.2009,-0.2056,-0.205,-0.2061,-0.2093,-0.2093,-0.2083,-0.2095,-0.2094,-0.2111,-0.2103,-0.2108,-0.2137,-0.2147,-0.2177,-0.2164,-0.2107,-0.2198,-0.2199,-0.2179,-0.2062,-0.2038,-0.2027,-0.213,-0.2128,-0.2127,-0.206,0,-0.1944,-0.193,-0.1968,-0.1944,-0.1943,-0.1994,-0.1985,-0.2003,-0.2026,-0.2028,-0.2053,-0.2056,-0.2094,-0.21,-0.209,-0.2116,-0.2084,-0.2121,-0.2123,-0.2122,-0.2115,-0.2017,-0.1992,-0.1927,-0.2052,-0.2051,-0.205,0,-0.1867,-0.1879,-0.1855,-0.1886,-0.1888,-0.1879,-0.1892,-0.1894,-0.1915,-0.1932,-0.1942,-0.1977,-0.1968,-0.2009,-0.1997,-0.2022,-0.2024,-0.2037,-0.2035,-0.2037,-0.2082,-0.2016,-0.1908,-0.1898,-0.2037,-0.2038,-0.2039,0,-0.1785,-0.1795,-0.1781,-0.1789,-0.1826,-0.1819,-0.1834,-0.1857,-0.1861,-0.1872,-0.1876,-0.1886,-0.1891,-0.1898,-0.1934,-0.196,-0.1917,-0.1962,-0.1931,-0.193,-0.1921,-0.1921,-0.1812,-0.1922,-0.1922,-0.1922,-0.1922,0,-0.1709,-0.1692,-0.1745,-0.1736,-0.1718,-0.1761,-0.1742,-0.1762,-0.1782,-0.1778,-0.1822,-0.1817,-0.1864,-0.1864,-0.1892,-0.1877,-0.188,-0.1893,-0.1901,-0.1889,-0.1888,-0.1892,-0.1898,-0.1919,-0.192,-0.192,-0.1921,0,-0.1615,-0.165,-0.1638,-0.1673,-0.1682,-0.1667,-0.1697,-0.169,-0.1715,-0.1709,-0.171,-0.1749,-0.1751,-0.1787,-0.1797,-0.1815,-0.1789,-0.1805,-0.1782,-0.1787,-0.1755,-0.1757,-0.1645,-0.1632,-0.1749,-0.1748,-0.1747,0,-0.1564,-0.1553,-0.1586,-0.1586,-0.1599,-0.1599,-0.1603,-0.1644,-0.1646,-0.1668,-0.1658,-0.1664,-0.167,-0.1671,-0.17,-0.1707,-0.1723,-0.1683,-0.1725,-0.1713,-0.1722,-0.1723,-0.1721,-0.1675,-0.1673,-0.1672,-0.1671,0,-0.1471,-0.1488,-0.1493,-0.1502,-0.1506,-0.1516,-0.1528,-0.1526,-0.1571,-0.1571,-0.1573,-0.1578,-0.1587,-0.1591,-0.1603,-0.1618,-0.1651,-0.1657,-0.1651,-0.1639,-0.1626,-0.1632,-0.1758,-0.166,-0.1661,-0.1662,-0.1663,-0.1663,-0.1397,-0.1388,-0.141,-0.1413,-0.1426,-0.1436,-0.1431,-0.1455,-0.1457,-0.1468,-0.1492,-0.149,-0.1509,-0.1528,-0.154,-0.1538,-0.1559,-0.1549,-0.1547,-0.1544,-0.1537,-0.1625,-0.1541,-0.1541,-0.1541,-0.1542,-0.1542,0,-0.1306,-0.1322,-0.1324,-0.1339,-0.1341,-0.1371,-0.1386,-0.1386,-0.1383,-0.1399,-0.1404,-0.1405,-0.1409,-0.1437,-0.1444,-0.1437,-0.1452,-0.1437,-0.1438,-0.1441,-0.1519,-0.1524,-0.1425,-0.1425,-0.1425,-0.1425,-0.1425,-0.1425,-0.1259,-0.1245,-0.1264,-0.1257,-0.1273,-0.1271,-0.1276,-0.1285,-0.1298,-0.1297,-0.13,-0.1318,-0.1338,-0.1346,-0.1351,-0.1359,-0.1359,-0.1339,-0.1352,-0.1424,-0.1436,-0.1447,-0.1452,-0.1338,-0.1338,-0.1274,-0.1274,-0.1273]}]]